Location: Cedar Springs
(43.2230°N, 85.5510°W)
Time: 22:29:29
(UTC-04:00)

Cosmos 2278 Rocket - Visible Passes

Search period start: 02 September 2015 00:00
Search period end: 12 September 2015 00:00
Orbit: 841 x 846 km, 71.0° (Epoch: 01 September)

Date Brightness Start Highest point End Pass type
(mag) Time Alt. Az. Time Alt. Az. Time Alt. Az.
02 Sep 3.4 03:05:05 10° NNW 03:10:10 38° NE 03:10:10 38° NE visible
02 Sep 3.6 04:49:21 10° NW 04:51:55 23° WNW 04:51:55 23° WNW visible
03 Sep 3.6 02:50:36 10° N 02:54:52 35° NE 02:54:52 35° NE visible
03 Sep 3.9 04:34:48 10° NW 04:36:38 19° NW 04:36:38 19° NW visible
04 Sep 3.8 02:36:07 10° N 02:39:46 30° NNE 02:39:46 30° NNE visible
04 Sep 4.1 04:20:15 10° NW 04:21:33 16° NW 04:21:33 16° NW visible
05 Sep 4.0 02:21:38 10° N 02:24:50 27° NNE 02:24:50 27° NNE visible
05 Sep 4.3 04:05:42 10° NW 04:06:37 14° NW 04:06:37 14° NW visible
06 Sep 4.2 02:07:08 10° N 02:09:59 25° NNE 02:09:59 25° NNE visible
06 Sep 4.5 03:51:10 10° NW 03:51:47 13° NW 03:51:47 13° NW visible
07 Sep 4.3 01:52:40 10° N 01:55:14 23° NNE 01:55:14 23° NNE visible
07 Sep 4.6 03:36:37 10° NW 03:37:02 12° NW 03:37:02 12° NW visible
08 Sep 4.4 01:38:11 10° N 01:40:33 21° N 01:40:33 21° N visible
08 Sep 4.7 03:22:05 10° NW 03:22:21 11° NW 03:22:21 11° NW visible
09 Sep 4.4 01:23:43 10° N 01:25:56 20° N 01:25:56 20° N visible
09 Sep 4.8 03:07:33 10° NW 03:07:44 11° NW 03:07:44 11° NW visible
10 Sep 4.5 01:09:14 10° N 01:11:21 20° N 01:11:21 20° N visible
10 Sep 4.8 02:53:02 10° NW 02:53:10 11° NW 02:53:10 11° NW visible
11 Sep 4.5 00:54:46 10° N 00:56:48 19° N 00:56:48 19° N visible
11 Sep 4.9 02:38:29 10° NW 02:38:37 11° NW 02:38:37 11° NW visible
